User: anonymous   Login
Location: Unspecified
(0.0000°N, 0.0000°E)
Time: 08:58:33
(UTC+00:00)
Language:

SOHLA-1 (MAIDO-1) - Orbit

View from above orbital plane
View from above orbital plane
View from above satellite
View from above satellite

Ground track
Ground track

The orbit data is extracted from the following two-line orbital elements,

1 33496U 09002E   18111.91422284 +.00000054 +00000-0 +17089-4 0  9998
2 33496 098.3531 274.0712 0007553 105.8790 254.3249 14.71754520495653
Epoch (UTC): 21 April 2018 21:56:28
Eccentricity: 0.0007553
inclination: 98.3531°
perigee height: 650 km
apogee height: 661 km
right ascension of ascending node: 274.0712°
argument of perigee: 105.8790°
revolutions per day: 14.71754520
mean anomaly at epoch: 254.3249°
orbit number at epoch: 49565

The dashed part of the orbit path shows where the satellite is in the earth's shadow,  

DLR